Weather History for HEAX - March, 2013

Change the Weather History Date:

Tuesday, March 26, 2013

  Actual Average Record
Temperature  
Mean Temperature 64 °F -  
Max Temperature 77 °F 71 °F - ()
Min Temperature 51 °F 55 °F - ()
Degree Days  
Heating Degree Days 1    
Growing Degree Days 14 (Base 50)    
Moisture  
Dew Point 52 °F    
Average Humidity 72    
Maximum Humidity 94    
Minimum Humidity 39    
Precipitation  
Precipitation 0.00 in 0.01 in - ()
Sea Level Pressure  
Sea Level Pressure 29.80 in    
Wind  
Wind Speed 10 mph ()    
Max Wind Speed 25 mph    
Max Gust Speed -    
Visibility 4.2 miles    
Events      
T = Trace of Precipitation, MM = Missing Value Source: Averaged Metar Reports

Daily Weather History Graph

Daily Weather History Graph

Search for Another Location

Airport or City:

Trip Planner

Search our weather history database for the weather conditions in past years. The results will help you decide how hot, cold, wet, or windy it might be!

Date:

Astronomy

Mar. 26, 2013 Rise Set
Actual Time 5:56 AM EET 6:15 PM EET
Civil Twilight 5:32 AM EET 6:39 PM EET
Nautical Twilight 5:04 AM EET 7:08 PM EET
Astronomical Twilight 4:35 AM EET 7:36 PM EET
Moon 5:30 PM EET (3/26) 4:59 AM EET (3/26)
Length of Visible Light 13h 07m
Length of Day
12h 19m
Waxing Gibbous, 99% of the Moon is Illuminated
Mar 26
Waxing Gibbous
Mar 27
Full
Apr 3
Last Quarter
Apr 10
New
Apr 18
First Quarter

Hourly Weather History & Observations

Time (EET) Temp. Dew Point Humidity Pressure Visibility Wind Dir Wind Speed Gust Speed Precip Events Conditions
12:00 AM 57.2 °F 53.6 °F 88% 29.89 in - East 9.2 mph - N/A   Clear
1:00 AM 55.4 °F 51.8 °F 88% 29.86 in - ESE 9.2 mph - N/A   Clear
2:00 AM 56 °F 52 °F 82% 29.83 in 6 mi ESE 9.2 mph - -  
2:00 AM 55.4 °F 51.8 °F 88% 29.83 in - ESE 9.2 mph - N/A   Clear
3:00 AM 53.6 °F 50.0 °F 88% 29.80 in - SE 5.8 mph - N/A   Clear
4:00 AM 53.6 °F 50.0 °F 88% 29.74 in - ESE 4.6 mph - N/A   Clear
5:00 AM 53.6 °F 48.2 °F 82% 29.74 in - SSE 4.6 mph - N/A   Clear
6:00 AM 51.8 °F 50.0 °F 94% 29.74 in 1.9 mi South 2.3 mph - N/A   Mist
7:00 AM 51.8 °F 50.0 °F 94% 29.74 in 0.7 mi SSE 2.3 mph - N/A   Mist
8:00 AM 58 °F 54 °F 80% 29.75 in 2 mi SSE 5.8 mph - -   Mist
8:00 AM 57.2 °F 53.6 °F 88% 29.74 in 1.9 mi SSE 5.8 mph - N/A   Mist
9:00 AM 62.6 °F 53.6 °F 72% 29.74 in 3.7 mi South 6.9 mph - N/A   Scattered Clouds
10:00 AM 73.4 °F 50.0 °F 44% 29.74 in 3.7 mi SSW 9.2 mph - N/A   Unknown
11:00 AM 77.0 °F 50.0 °F 39% 29.74 in 3.7 mi WSW 20.7 mph - N/A   Mostly Cloudy
12:00 PM 73.4 °F 51.8 °F 47% 29.77 in 1.9 mi West 25.3 mph - N/A   Sand
1:00 PM 73.4 °F 51.8 °F 47% 29.77 in 1.9 mi West 23.0 mph - N/A   Sand
2:00 PM 69.8 °F 55.4 °F 60% 29.77 in 3.7 mi WNW 18.4 mph - N/A   Scattered Clouds
3:00 PM 69.8 °F 53.6 °F 56% 29.80 in 3.7 mi WNW 20.7 mph - N/A   Unknown
4:00 PM 69.8 °F 55.4 °F 60% 29.80 in 3.7 mi West 18.4 mph - N/A   Unknown
5:00 PM 68.0 °F 53.6 °F 60% 29.80 in 6.2 mi WNW 15.0 mph - N/A   Partly Cloudy
6:00 PM 64.4 °F 53.6 °F 68% 29.83 in 6.2 mi WNW 15.0 mph - N/A   Scattered Clouds
7:00 PM 62.6 °F 53.6 °F 72% 29.83 in 6.2 mi West 16.1 mph - N/A   Scattered Clouds
8:00 PM 63 °F 53 °F 62% 29.86 in 6 mi WNW 13.8 mph - -   Scattered Clouds
8:00 PM 62.6 °F 53.6 °F 72% 29.86 in 6.2 mi WNW 13.8 mph - N/A   Partly Cloudy
9:00 PM 62.6 °F 53.6 °F 72% 29.89 in 6.2 mi West 15.0 mph - N/A   Partly Cloudy
10:00 PM 62.6 °F 53.6 °F 72% 29.89 in 6.2 mi WNW 13.8 mph - N/A   Partly Cloudy
11:00 PM 60.8 °F 53.6 °F 77% 29.92 in 6.2 mi West 12.7 mph - N/A   Partly Cloudy